TimeCDT,TemperatureF,Dew PointF,Humidity,Sea Level PressureIn,VisibilityMPH,Wind Direction,Wind SpeedMPH,Gust SpeedMPH,PrecipitationIn,Events,Conditions,WindDirDegrees,DateUTC
12:15 AM,64.4,62.4,93,30.19,7.0,SSE,12.7,-,N/A,,Mostly Cloudy,160,2013-09-17 05:15:00
12:35 AM,64.4,62.2,93,30.19,7.0,SSE,9.2,-,N/A,,Scattered Clouds,160,2013-09-17 05:35:00
12:55 AM,64.4,62.2,93,30.19,7.0,South,9.2,-,N/A,,Scattered Clouds,170,2013-09-17 05:55:00
1:15 AM,64.6,62.2,92,30.19,10.0,South,8.1,-,N/A,,Mostly Cloudy,180,2013-09-17 06:15:00
1:35 AM,64.4,61.9,92,30.18,10.0,South,9.2,-,N/A,,Mostly Cloudy,190,2013-09-17 06:35:00
1:55 AM,64.4,61.7,91,30.18,10.0,South,8.1,-,N/A,,Scattered Clouds,180,2013-09-17 06:55:00
2:15 AM,64.4,61.3,90,30.17,10.0,South,8.1,-,N/A,,Scattered Clouds,180,2013-09-17 07:15:00
2:35 AM,64.4,61.2,89,30.17,10.0,South,8.1,-,N/A,,Scattered Clouds,190,2013-09-17 07:35:00
2:55 AM,64.4,61.3,90,30.16,10.0,South,9.2,-,N/A,,Clear,190,2013-09-17 07:55:00
3:15 AM,64.4,61.2,89,30.16,10.0,South,8.1,-,N/A,,Clear,180,2013-09-17 08:15:00
3:35 AM,63.9,61.2,91,30.16,10.0,South,8.1,-,N/A,,Mostly Cloudy,180,2013-09-17 08:35:00
3:55 AM,64.0,61.3,91,30.16,10.0,South,10.4,-,N/A,,Overcast,180,2013-09-17 08:55:00
4:15 AM,64.0,61.3,91,30.16,10.0,SSE,6.9,-,N/A,,Overcast,150,2013-09-17 09:15:00
4:35 AM,63.5,61.0,91,30.16,10.0,SSE,8.1,-,N/A,,Mostly Cloudy,150,2013-09-17 09:35:00
4:55 AM,63.1,61.2,93,30.16,7.0,South,9.2,-,N/A,,Overcast,170,2013-09-17 09:55:00
5:15 AM,63.1,61.2,93,30.16,7.0,South,9.2,-,N/A,,Overcast,180,2013-09-17 10:15:00
5:35 AM,63.3,61.5,94,30.15,7.0,South,9.2,-,N/A,,Overcast,180,2013-09-17 10:35:00
5:55 AM,63.1,61.3,94,30.16,5.0,South,8.1,-,N/A,,Overcast,170,2013-09-17 10:55:00
6:15 AM,63.1,61.5,94,30.15,4.0,South,10.4,-,N/A,,Mostly Cloudy,170,2013-09-17 11:15:00
6:35 AM,63.0,61.3,94,30.14,4.0,South,11.5,-,N/A,,Scattered Clouds,190,2013-09-17 11:35:00
6:55 AM,63.0,61.3,94,30.14,5.0,South,11.5,-,N/A,,Clear,190,2013-09-17 11:55:00
7:15 AM,62.8,61.2,94,30.15,4.0,South,8.1,-,N/A,,Clear,190,2013-09-17 12:15:00
7:35 AM,62.6,61.0,94,30.16,4.0,South,9.2,-,N/A,,Clear,190,2013-09-17 12:35:00
7:55 AM,62.8,61.3,95,30.16,4.0,SSW,6.9,-,N/A,,Scattered Clouds,200,2013-09-17 12:55:00
8:15 AM,63.1,61.7,95,30.16,4.0,SSW,8.1,-,N/A,,Mostly Cloudy,210,2013-09-17 13:15:00
8:35 AM,63.9,62.4,95,30.16,5.0,SW,9.2,-,N/A,,Scattered Clouds,220,2013-09-17 13:35:00
8:55 AM,64.9,62.6,92,30.17,7.0,SSW,9.2,-,N/A,,Scattered Clouds,210,2013-09-17 13:55:00
9:15 AM,65.8,62.4,89,30.16,7.0,SW,13.8,-,N/A,,Scattered Clouds,220,2013-09-17 14:15:00
9:35 AM,67.1,62.6,85,30.17,7.0,SW,12.7,18.4,N/A,,Clear,220,2013-09-17 14:35:00
9:55 AM,68.5,63.0,82,30.17,10.0,SW,13.8,19.6,N/A,,Scattered Clouds,230,2013-09-17 14:55:00
10:15 AM,69.3,62.8,80,30.17,10.0,SW,16.1,-,N/A,,Scattered Clouds,220,2013-09-17 15:15:00
10:35 AM,70.0,63.0,78,30.17,10.0,SW,17.3,20.7,N/A,,Scattered Clouds,220,2013-09-17 15:35:00
10:55 AM,72.0,63.3,74,30.17,10.0,SSW,15.0,-,N/A,,Scattered Clouds,210,2013-09-17 15:55:00
11:15 AM,72.7,63.5,73,30.16,10.0,SSW,15.0,19.6,N/A,,Scattered Clouds,210,2013-09-17 16:15:00
11:35 AM,73.8,63.5,70,30.16,10.0,SSW,12.7,-,N/A,,Scattered Clouds,210,2013-09-17 16:35:00
11:55 AM,74.7,63.5,68,30.15,10.0,SSW,17.3,23.0,N/A,,Scattered Clouds,210,2013-09-17 16:55:00
12:15 PM,76.1,63.7,65,30.14,10.0,SW,15.0,-,N/A,,Scattered Clouds,220,2013-09-17 17:15:00
12:35 PM,76.5,64.0,65,30.14,10.0,SSW,17.3,-,N/A,,Scattered Clouds,210,2013-09-17 17:35:00
12:55 PM,76.3,63.7,65,30.13,10.0,SSW,15.0,-,N/A,,Clear,210,2013-09-17 17:55:00
1:15 PM,76.1,63.3,64,30.13,10.0,SSW,18.4,23.0,N/A,,Clear,210,2013-09-17 18:15:00
1:35 PM,77.9,63.1,60,30.12,10.0,SSW,16.1,21.9,N/A,,Clear,210,2013-09-17 18:35:00
1:55 PM,78.3,63.3,60,30.11,10.0,SSW,19.6,27.6,N/A,,Scattered Clouds,200,2013-09-17 18:55:00
2:15 PM,79.2,63.0,57,30.09,10.0,SSW,16.1,20.7,N/A,,Scattered Clouds,210,2013-09-17 19:15:00
2:35 PM,79.3,63.0,57,30.08,10.0,SSW,16.1,21.9,N/A,,Scattered Clouds,200,2013-09-17 19:35:00
2:55 PM,81.1,62.4,53,30.07,10.0,SSW,13.8,21.9,N/A,,Scattered Clouds,210,2013-09-17 19:55:00
3:15 PM,81.3,61.7,51,30.06,10.0,SSW,19.6,25.3,N/A,,Scattered Clouds,200,2013-09-17 20:15:00
3:35 PM,79.9,61.2,53,30.05,10.0,SSW,15.0,21.9,N/A,,Scattered Clouds,200,2013-09-17 20:35:00
3:55 PM,82.6,61.7,49,30.04,10.0,SSW,17.3,24.2,N/A,,Scattered Clouds,200,2013-09-17 20:55:00
4:15 PM,80.4,61.5,52,30.05,10.0,SSW,19.6,24.2,N/A,,Mostly Cloudy,200,2013-09-17 21:15:00
4:35 PM,81.0,60.1,49,30.03,10.0,SSW,19.6,26.5,N/A,,Scattered Clouds,210,2013-09-17 21:35:00
4:55 PM,80.2,61.0,52,30.03,10.0,SSW,19.6,26.5,N/A,,Clear,200,2013-09-17 21:55:00
5:15 PM,79.0,61.3,55,30.03,10.0,SSW,16.1,-,N/A,,Clear,200,2013-09-17 22:15:00
5:35 PM,78.4,61.9,57,30.03,10.0,SSW,16.1,-,N/A,,Scattered Clouds,200,2013-09-17 22:35:00
6:15 PM,76.5,62.1,61,30.03,10.0,SW,16.1,24.2,N/A,,Mostly Cloudy,220,2013-09-17 23:15:00
6:35 PM,72.7,61.9,69,30.03,10.0,SSW,15.0,-,N/A,,Mostly Cloudy,210,2013-09-17 23:35:00
6:55 PM,71.4,61.7,71,30.02,10.0,South,10.4,19.6,N/A,Rain,Light Rain,180,2013-09-17 23:55:00
7:15 PM,71.6,61.9,71,30.02,10.0,South,10.4,-,N/A,Rain,Light Rain,180,2013-09-18 00:15:00
7:35 PM,71.6,61.9,71,30.01,10.0,South,10.4,-,N/A,,Clear,190,2013-09-18 00:35:00
7:55 PM,70.7,62.1,74,30.02,10.0,South,9.2,-,N/A,,Clear,180,2013-09-18 00:55:00
8:15 PM,70.3,61.7,74,30.02,10.0,South,12.7,-,N/A,,Clear,180,2013-09-18 01:15:00
8:35 PM,70.2,61.7,74,30.03,10.0,South,12.7,-,N/A,,Clear,180,2013-09-18 01:35:00
8:55 PM,70.3,62.6,76,30.03,10.0,SSE,15.0,-,N/A,,Clear,150,2013-09-18 01:55:00
9:15 PM,69.1,63.9,83,30.03,10.0,SSE,15.0,20.7,N/A,,Clear,160,2013-09-18 02:15:00
9:35 PM,69.3,63.5,82,30.03,10.0,South,13.8,21.9,N/A,,Clear,170,2013-09-18 02:35:00
9:55 PM,69.4,63.1,80,30.04,10.0,South,15.0,19.6,N/A,,Clear,170,2013-09-18 02:55:00
10:15 PM,68.4,63.3,84,30.04,10.0,South,15.0,-,N/A,,Clear,180,2013-09-18 03:15:00
10:35 PM,68.2,63.1,84,30.04,10.0,South,13.8,18.4,N/A,,Clear,180,2013-09-18 03:35:00
10:55 PM,68.0,63.1,84,30.05,10.0,South,12.7,-,N/A,,Clear,180,2013-09-18 03:55:00
11:15 PM,68.0,63.1,84,30.05,10.0,South,12.7,-,N/A,,Clear,180,2013-09-18 04:15:00
11:35 PM,67.6,63.1,85,30.05,10.0,South,15.0,-,N/A,,Clear,190,2013-09-18 04:35:00
11:55 PM,67.5,63.1,86,30.05,10.0,South,16.1,-,N/A,,Clear,190,2013-09-18 04:55:00